STARLINK-36103

Last updated on Fri Dec 19 2025 00:02:09 GMT+0000 (Coordinated Universal Time)

1 66985U 25288AC 25352.58336806 -.01562454 00000+0 -68357-2 0 9994 2 66985 43.0013 131.2759 0001408 271.5907 351.2355 15.86407255 2772
UTC large
Height (km)
Speed (km/s)
/
Latitude / Longitude
Inclination (degrees)
Orbital Period (minutes)
Azimuth
Elevation
Range (km)
Doppler Factor

Next 0 passes for location: London (51.5072 / 0.1276)

Sorry there are no passes over London.